CW0565 Weather Reports


time (UTC)temp
C
wind
direction
speed
KPH
gust
KPH
rain 1hr
cm
rain 24hr
cm
rain mn
cm
humidity
%
barometer
mb
20260510194513 7 309 6.4 20.9 0.00 0.05 0.05 45 1007.0
20260510193009 7 276 6.4 16.1 0.00 0.05 0.05 45 1006.9
20260510191509 7 217 4.8 17.7 0.00 0.05 0.05 44 1006.8
20260510190009 8 273 9.7 20.9 0.00 0.05 0.05 43 1006.8
20260510184509 8 291 6.4 14.5 0.00 0.05 0.05 40 1006.7
20260510183009 8 291 6.4 19.3 0.00 0.05 0.05 39 1006.9
20260510181509 8 260 9.7 17.7 0.00 0.05 0.05 38 1007.0
20260510180009 9 272 9.7 19.3 0.00 0.05 0.05 37 1007.0
20260510174509 9 238 1.6 12.9 0.00 0.05 0.05 38 1007.1
20260510173009 10 312 3.2 16.1 0.00 0.05 0.05 37 1007.3
20260510171513 10 306 9.7 24.1 0.00 0.05 0.05 32 1007.5
20260510170009 11 278 8.0 19.3 0.00 0.05 0.05 33 1007.5
20260510164509 10 283 16.1 27.4 0.00 0.05 0.05 33 1007.7
20260510163010 11 338 9.7 24.1 0.00 0.05 0.05 35 1007.9
20260510161510 11 329 11.3 25.7 0.00 0.05 0.05 34 1008.0
20260510160013 11 282 19.3 33.8 0.00 0.05 0.05 34 1008.2
20260510154511 11 309 12.9 27.4 0.00 0.05 0.05 30 1008.3
20260510153009 11 277 11.3 24.1 0.00 0.05 0.05 30 1008.3
20260510151516 11 292 12.9 33.8 0.00 0.05 0.05 31 1008.5
20260510150012 12 282 8.0 32.2 0.00 0.05 0.05 31 1008.7
20260510144512 11 301 17.7 32.2 0.00 0.05 0.05 29 1008.9
20260510143012 12 259 12.9 24.1 0.00 0.05 0.05 28 1009.0
20260510141509 12 313 8.0 35.4 0.00 0.05 0.05 29 1009.1
20260510140009 12 286 17.7 30.6 0.00 0.05 0.05 28 1009.3
20260510134510 13 303 8.0 17.7 0.00 0.05 0.05 25 1009.3
20260510133009 12 256 16.1 30.6 0.00 0.05 0.05 28 1009.4
20260510131509 12 262 6.4 19.3 0.00 0.05 0.05 28 1009.6
20260510130013 12 238 8.0 24.1 0.00 0.05 0.05 28 1009.8
20260510124510 11 275 9.7 19.3 0.00 0.05 0.05 30 1010.1
20260510123009 11 306 9.7 27.4 0.00 0.05 0.05 28 1010.3
20260510121509 12 243 1.6 17.7 0.00 0.05 0.05 27 1010.3
20260510120010 12 274 12.9 25.7 0.00 0.05 0.05 27 1010.5
20260510114510 12 309 8.0 20.9 0.00 0.05 0.05 28 1010.8
20260510113010 13 331 6.4 20.9 0.00 0.05 0.05 27 1010.9
20260510111510 12 294 14.5 27.4 0.00 0.05 0.05 29 1011.0
20260510110009 12 261 6.4 19.3 0.00 0.05 0.05 28 1011.2
20260510104510 11 279 16.1 25.7 0.00 0.05 0.05 32 1011.7
20260510103009 13 236 4.8 27.4 0.00 0.05 0.05 28 1011.6
20260510101509 12 293 4.8 19.3 0.00 0.05 0.05 29 1011.8
20260510100010 11 330 6.4 20.9 0.00 0.05 0.05 33 1012.0
20260510094510 11 315 14.5 27.4 0.00 0.05 0.05 30 1012.3
20260510093009 11 304 6.4 22.5 0.00 0.05 0.05 30 1012.4
20260510091509 11 304 12.9 29.0 0.00 0.05 0.05 34 1012.3
20260510090010 11 287 12.9 22.5 0.00 0.05 0.05 35 1012.7
20260510084509 11 10 6.4 27.4 0.00 0.05 0.05 38 1012.8
20260510083010 10 287 8.0 17.7 0.00 0.05 0.05 39 1012.8
20260510081509 10 19 8.0 19.3 0.00 0.05 0.05 43 1012.8
20260510080027 9 350 16.1 24.1 0.00 0.05 0.05 46 1013.1
20260510074509 9 15 9.7 20.9 0.00 0.05 0.05 48 1013.2
20260510071509 8 5 9.7 20.9 0.00 0.05 0.05 56 1013.7
20260510070009 8 329 4.8 19.3 0.00 0.05 0.05 61 1013.7
20260510064512 7 268 9.7 22.5 0.00 0.05 0.05 61 1013.7
20260510063009 7 293 4.8 20.9 0.00 0.05 0.05 65 1013.9
20260510061511 7 301 6.4 16.1 0.00 0.05 0.05 72 1014.0
20260510060021 6 292 1.6 8.0 0.00 0.05 0.05 80 1014.0
20260510054511 6 288 1.6 12.9 0.00 0.05 0.05 82 1014.0
20260510053009 6 308 0.0 6.4 0.00 0.05 0.05 83 1014.0
20260510050009 6 330 0.0 8.0 0.00 0.05 0.05 87 1014.2
20260510044509 6 5 0.0 1.6 0.00 0.05 0.05 88 1014.1
20260510041511 6 5 0.0 6.4 0.00 0.05 0.05 88 1014.4
20260510040012 6 9 0.0 0.0 0.03 0.05 0.05 89 1014.6
20260510034509 6 9 0.0 3.2 0.03 0.05 0.05 88 1014.7
20260510033009 6 9 0.0 3.2 0.05 0.05 0.05 89 1014.9
20260510031511 6 11 0.0 1.6 0.05 0.05 0.05 89 1015.0
20260510030009 6 10 0.0 3.2 0.03 0.03 0.03 89 1015.1
20260510024511 6 11 1.6 8.0 0.03 0.03 0.03 88 1015.4
20260510021526 6 10 0.0 1.6 0.00 0.00 0.00 87 1015.6
20260510020010 6 11 0.0 0.0 0.00 0.00 0.00 87 1015.7
20260510014521 6 11 0.0 0.0 0.00 0.00 0.00 86 1015.8
20260510013010 6 11 0.0 0.0 0.00 0.00 0.00 84 1016.0
20260510011515 7 11 0.0 0.0 0.00 0.00 0.00 84 1016.1
20260510010021 7 11 0.0 0.0 0.00 0.00 0.00 84 1016.2
20260510004510 7 11 0.0 0.0 0.00 0.00 0.00 82 1016.4
20260510003010 7 11 0.0 0.0 0.00 0.00 0.00 80 1016.7
20260510001511 7 11 0.0 0.0 0.00 0.00 0.00 79 1016.8
20260510000010 7 11 0.0 0.0 0.00 0.00 0.00 78 1017.0
20260509234510 7 11 0.0 0.0 0.00 0.00 0.00 77 1017.1
20260509233009 7 11 0.0 0.0 0.00 0.00 0.00 77 1017.2
20260509230022 7 11 0.0 0.0 0.00 0.00 0.00 76 1017.5
20260509224509 7 11 0.0 0.0 0.00 0.00 0.00 75 1017.5
20260509223002 7 11 0.0 0.0 0.00 0.00 0.00 74 1017.6
20260509221502 7 11 0.0 0.0 0.00 0.00 0.00 73 1017.7
20260509220009 7 11 0.0 6.4 0.00 0.00 0.00 74 1017.8
20260509214509 7 9 1.6 9.7 0.00 0.00 0.00 73 1017.8
20260509213010 7 17 3.2 6.4 0.00 0.00 0.00 72 1017.8
20260509211509 8 17 3.2 6.4 0.00 0.00 0.00 71 1018.0
20260509210010 8 142 0.0 3.2 0.00 0.00 0.00 68 1017.9
20260509204509 8 147 0.0 1.6 0.00 0.00 0.00 68 1018.1
20260509203013 8 147 0.0 8.0 0.00 0.00 0.00 66 1018.1
20260509201514 9 184 0.0 0.0 0.00 0.00 0.00 66 1018.3
20260509200010 10 184 0.0 1.6 0.00 0.00 0.00 65 1018.2